This demonstration page uses our WeatherBlox Daily Observations layout. Learn more.

39.92423, -83.80882

Hourly Observations for May 17, 2016

Temp ( °F °C ) Dew Point ( °F °C ) Humidity (%) Winds ( mph kmh ) Pressure ( in mb ) Visibility ( mi km ) Precip ( " mm )
12:56 am 00:56 Clear 55 12.7 40 4.4 57 57 S 5 7 30.19 1022 10 16.0934 0 0
1:56 am 01:56 Clear 53 11.6 41 5 64 64 WSW 6 9 30.2 1023 10 16.0934 0 0
2:56 am 02:56 Clear 53 11.6 42 5.5 66 66 SW 6 9 30.19 1022 10 16.0934 0 0
3:56 am 03:56 Mostly Cloudy 53 11.6 43 6.1 69 69 W 3 6 30.19 1023 10 16.0934 0 0
4:39 am 04:39 Cloudy with Light Rain 52 11 45 7 77 77 NNW 6 9 30.24 1024 10 16.0934 0 0.0254
4:56 am 04:56 Cloudy 50 10 44 6.6 80 80 WSW 3 6 30.2 1023 10 16.0934 0 0.0254
5:56 am 05:56 Mostly Clear 51 10.5 45 7.2 80 80 SSE 3 6 30.2 1023 10 16.0934 0 0
6:56 am 06:56 Sunny 50 10 46 7.7 86 86 Calm 30.22 1023 10 16.0934 0 0
7:56 am 07:56 Mostly Cloudy with Light Rain 51 10.5 46 7.7 83 83 S 3 6 30.23 1024 9 14.48406 0 0.0254
8:56 am 08:56 Cloudy 51 10.5 47 8.3 86 86 Calm 30.25 1024 10 16.0934 0 0.0254
9:56 am 09:56 Mostly Cloudy 53 11.6 46 7.7 77 77 S 5 7 30.24 1024 10 16.0934 0 0
10:56 am 10:56 Sunny 54 12.2 45 7.2 72 72 Calm 30.24 1024 10 16.0934 0 0
11:56 am 11:56 Mostly Cloudy with Light Rain 55 12.7 45 7.2 69 69 Calm 30.25 1024 10 16.0934 0 0.0254
12:56 pm 12:56 Mostly Cloudy with Light Rain 55 12.7 46 7.7 72 72 NE 3 6 30.25 1024 10 16.0934 0 0.0254
1:56 pm 13:56 Cloudy 54 12.2 47 8.3 77 77 Calm 30.23 1024 9 14.48406 0.02 0.508
2:56 pm 14:56 Sunny 56 13.3 47 8.3 72 72 ESE 7 11 30.21 1023 10 16.0934 0 0.0254
3:56 pm 15:56 Mostly Sunny 57 13.8 46 7.7 67 67 E 8 13 30.19 1022 10 16.0934 0 0
4:56 pm 16:56 Sunny 58 14.4 47 8.3 67 67 ENE 7 11 30.16 1021 10 16.0934 0 0
5:56 pm 17:56 Partly Cloudy 57 13.8 47 8.3 70 70 NE 8 13 30.15 1021 10 16.0934 0 0
6:56 pm 18:56 Mostly Cloudy 56 13.3 47 8.3 72 72 NE 7 11 30.14 1021 10 16.0934 0 0
7:56 pm 19:56 Mostly Cloudy with Light Rain 54 12.2 50 10 87 87 NE 3 6 30.16 1021 6 9.65604 0.01 0.254
8:56 pm 20:56 Cloudy with Light Rain 52 11.1 51 10.5 96 96 ENE 3 6 30.17 1022 8 12.87472 0.02 0.508
9:56 pm 21:56 Cloudy 51 10.5 51 10.5 100 100 ENE 7 11 30.14 1021 10 16.0934 0.01 0.254
10:56 pm 22:56 Cloudy with Light Rain 52 11.1 51 10.5 96 96 NW 3 6 30.19 1022 10 16.0934 0.01 0.254
11:56 pm 23:56 Cloudy with Mist and Fog 51 10.5 51 10.5 100 100 NNE 5 7 30.16 1021 6 9.65604 0.03 0.762

Powered by AerisWeather